www.pogodaiklimat.ru

Погода и климат >> Архив погоды >> Россия >> Костромская область >> Вохма


ПОГОДА в Вохме

  • Прогноз погоды в Вохме
  • Монитор погоды в Вохме

АРХИВ ПОГОДЫ в Вохме

Время (UTC), дата Ветер
(напр.,м/с)
 
Видим.   Явления Облачность Т
(С)
Тd
(С)
f
(%)
Тe
(С)
Тes
(С)
Комфортность P
(гПа)
Po
(гПа)
Тmin
(С)
Tmax
(С)
R
(мм)
R24
(мм)
S
(см)
12 16.07 СЗ 1 40 км 5/4 1500 м
[Cb calv Ac trans]
+22.0 +9.5 45 +24 +29 комфорт 1010.9 992.5
15 16.07 ЮЗ 1 40 км 3/3 1500 м
[Cu med, cong Ac trans]
+21.6 +10.0 48 +23 +25 комфорт 1011.5 993.1 +23.0
18 16.07 штиль 0 40 км ясно +13.7 +11.8 88 +13 +13 1013.1 994.2
21 16.07 СВ 1 50 км ясно +9.7 +9.0 95 +9 +9 1014.1 994.9
00 17.07 штиль 0 40 км ясно +7.5 +6.8 95 +6 +6 1015.2 995.8
03 17.07 СВ 1 40 км 3/0
[Ac trans]
+14.0 +11.3 84 +14 +17 1015.3 996.4 +7.0
06 17.07 В 2 40 км 4/0
[Ci fib]
+20.9 +12.4 58 +24 +33 комфорт 1014.6 996.1
09 17.07 ЮВ 2 40 км 8/4 1000 м
[Cb calv Ci fib]
+22.7 +10.8 47 +25 +32 комфорт 1014.4 996.0
12 17.07 ЮВ 2 40 км 8/4 1000 м
[Cb calv Ci fib]
+23.0 +9.7 43 +25 +29 комфорт 1013.5 995.2
15 17.07 В 3 40 км 8/6 1000 м
[Cb calv Ac trans Ci fib]
+23.1 +9.9 43 +25 +25 комфорт 1012.7 994.4 +24.3
18 17.07 СВ 2 40 км 6/3 1000 м
[Cb calv Ac und]
+17.9 +11.5 66 +18 +18 1013.1 994.4
21 17.07 СВ 2 50 км 8/0
[Ac und]
+16.3 +11.3 72 +16 +16 1012.7 994.0
00 18.07 СВ 1 50 км 8/0
[Ac und]
+14.4 +10.4 77 +15 +15 1012.3 993.4
03 18.07 В 2 40 км 8/6 1000 м
[Cb calv Ac und]
+15.7 +10.8 73 +16 +16 1011.9 993.1 +13.8
06 18.07 В 3 40 км 8/5 1500 м
[Cb calv Ac trans]
+19.5 +11.8 61 +21 +24 комфорт 1010.9 992.4
09 18.07 В 3 40 км 10/5 1500 м
[Cb calv Ac trans]
+19.3 +12.3 64 +21 +23 комфорт 1011.0 992.5
12 18.07 В 3 40 км 9/6 1500 м
[Cb calv Ac trans]
+20.5 +13.1 62 +23 +25 комфорт 1010.3 991.9
15 18.07 В 1 40 км 8/4 1500 м
[Cb calv Ac trans]
+20.3 +14.0 67 +24 +25 комфорт 1009.8 991.4 +22.2
18 18.07 СВ 1 40 км 9/5 1000 м
[Cb calv Ac trans]
+18.5 +13.9 75 +20 +20 1009.5 991.0
21 18.07 СВ 1 50 км 8/0
[Ac trans]
+17.2 +13.7 80 +18 +18 1009.1 990.5
00 19.07 ЮВ 1 8000 м гроза, ливневой дождь 9/6 600 м
[Cb calv Ac trans]
+14.9 +14.1 95 +15 +15 1009.5 990.7
03 19.07 В 2 6000 м гроза, ливневой дождь 9/6 600 м
[Cb calv Ac trans]
+15.0 +13.9 93 +15 +15 1008.5 989.8 +14.9 6
06 19.07 ЮВ 1 8000 м слаб. ливневой дождь 8/8 600 м
[Cb calv]
+17.7 +15.4 86 +19 +21 1008.1 989.6
09 19.07 ЮЗ 2 40 км {ливн. осадки} 8/8 600 м
[Cb calv]
+19.8 +16.7 82 +23 +26 комфорт 1008.0 989.6
12 19.07 ЮВ 1 40 км {ливн. осадки} 8/6 1000 м
[Cb calv Ac trans]
+22.9 +16.5 67 +28 +30 душно 1006.8 988.6
15 19.07 ЮЗ 2 40 км 8/8
[Cb calv]
+18.9 +14.5 76 +21 +21 комфорт 1007.2 988.7 +24.4 5
18 19.07 штиль 0 40 км {гроза, ливн. осадки} 8/5 600 м
[Cb calv Ac trans]
+14.6 +13.7 94 +14 +14 1006.6 987.9
21 19.07 штиль 0 50 км 8/4 600 м
[Cb calv Ac trans]
+12.5 +11.8 95 +12 +12 1007.9 989.0
00 20.07 штиль 0 4000 м дымка 3/0
[Ac trans]
+10.6 +10.0 96 +10 +10 1008.3 989.3
03 20.07 Ю 1 8000 м дымка 3/0
[Ac trans]
+14.3 +13.6 96 +15 +17 1008.2 989.5 +9.7 2
06 20.07 Ю 1 40 км 6/0
[Ac und]
+21.0 +14.1 65 +25 +31 комфорт 1007.8 989.4
09 20.07 Ю 2 40 км 8/5 1000 м
[Cb calv Ac und]
+22.4 +14.0 59 +26 +30 жарко 1007.2 989.0
12 20.07 ЮЗ 1 8000 м гроза, ливневой дождь 10/8 600 м
[Cb calv Ac und]
+14.5 +13.7 95 +15 +15 1008.9 990.2
15 20.07 Ю 2 40 км {гроза, ливн. осадки} 8/5 1000 м
[Cb calv Ac und]
+17.8 +15.7 88 +18 +19 1008.1 989.6 +23.0 14
18 20.07 штиль 0 40 км {гроза} 6/6 600 м
[Cb calv]
+14.6 +13.7 94 +14 +14 1008.8 990.0
21 20.07 ЮЗ 1 50 км 6/6 600 м
[Cb calv]
+13.9 +13.2 96 +14 +14 1009.2 990.4
00 21.07 ЮЗ 2 3000 м 6/6 600 м
[Cb calv]
+13.4 +12.7 96 +13 +13 1009.3 990.4
03 21.07 ЮЗ 2 4000 м дымка 10/10 600 м
[Cb calv]
+13.0 +12.4 96 +12 +12 1009.3 990.5 +12.9
06 21.07 ЮЗ 2 8000 м 10/10 600 м
[Cb calv]
+14.7 +13.9 95 +14 +14 1009.6 990.8
09 21.07 ЮЗ 2 40 км 8/8 1000 м
[Cb calv]
+19.2 +14.2 73 +21 +24 комфорт 1009.0 990.6
12 21.07 С 1 40 км 8/8 1000 м
[Cb calv]
+19.7 +14.7 73 +23 +25 комфорт 1009.2 990.8
15 21.07 З 1 8000 м слаб. ливневой дождь {гроза} 9/8 600 м
[Cb calv Ac trans]
+15.7 +14.8 94 +16 +17 1010.1 991.4 +20.9 5
18 21.07 СЗ 1 40 км {гроза, ливн. осадки} 8/6 1000 м
[Cb calv Ac und]
+14.6 +13.7 94 +15 +15 1010.4 991.6
21 21.07 СЗ 1 50 км 10/0
[Ac und]
+13.9 +13.1 95 +14 +14 1010.9 992.0
00 22.07 СЗ 1 40 км 10/10 <50 м
[]
+13.5 +12.7 95 +14 +14 1011.0 992.1
03 22.07 З 1 40 км 10/0
[Ac und]
+13.3 +12.5 95 +13 +13 1011.2 992.3 +13.2 1
06 22.07 СЗ 1 6000 м слаб. ливневой дождь 10/10 600 м
[Cb calv]
+14.1 +13.0 93 +14 +14 1010.8 992.0
09 22.07 СЗ 2 40 км {ливн. осадки} 10/10 600 м
[Cb calv]
+16.5 +13.7 84 +17 +17 1010.7 992.0
12 22.07 СЗ 1 8000 м слаб. ливневой дождь 10/10 600 м
[Cb calv]
+16.1 +14.4 90 +17 +17 1010.7 992.0
15 22.07 СЗ 2 40 км {ливн. осадки} 10/10 600 м
[Cb calv]
+15.2 +13.6 90 +15 +15 1011.0 992.2 +18.3 2
18 22.07 З 1 40 км {ливн. осадки} 10/10 600 м
[Cb calv]
+14.6 +13.3 92 +15 +15 1010.7 991.9
21 22.07 З 1 50 км 10/10 600 м
[Cb calv]
+14.1 +13.1 94 +14 +14 1010.3 991.5
00 23.07 штиль 0 40 км 10/10 600 м
[Cb calv]
+13.7 +12.8 94 +13 +13 1010.3 991.4
03 23.07 З 1 40 км {ливн. осадки} 10/10 600 м
[Cb calv]
+14.1 +12.9 92 +14 +14 1010.6 991.8 +13.6 0.3
06 23.07 З 1 40 км {ливн. осадки} 10/10 600 м
[Cb calv]
+16.0 +13.1 83 +17 +17 1011.2 992.5
09 23.07 З 1 40 км 10/10 600 м
[Cb calv]
+17.5 +12.7 73 +19 +19 1012.0 993.4

 

Местоположение метеостанции Вохма (Костромская область, Россия): широта 58.93 долгота 46.77 высота над уровнем моря 159 м.

В архиве по умолчанию представлена погода в Вохме за последнюю неделю. Архивные данные за месяц целиком и за предыдущие месяцы, начиная с января 2011 года, Вы можете получить, выбрав интересующий диапазон дат из раскрывающегося списка и нажав кнопку "Ввод!".


*Определитесь, кто Вы:
робот инопланетянин человек

Внимание! Время в таблицах - всемирное. Для получения местного времени необходимо прибавить поправку, которая равна 3 ч.

Смотрите также архив погоды в соседних городах и на ближайших метеорологических станциях:

Погода в Пыщуге (Костромская область, Россия) (61 км)
Погода в Даровском (Кировская область, Россия) (71 км)
Погода в Шабалино (Кировская область, Россия) (73 км)
Погода в Шарье (Костромская область, Россия) (95 км)
Погода в Никольске (Вологодская область, Россия) (100 км)
Погода в Котельниче (Кировская область, Россия) (115 км)
Погода в Мантурово (Костромская область, Россия) (133 км)
Погода в Опарино (Кировская область, Россия) (133 км)
Погода в Ветлуге (Нижегородская область, Россия) (134 км)
Погода в Кологриве (Костромская область, Россия) (141 км)

Пояснения к столбцам:

Ветер - указаны скорость ветра в м/с - средняя за 10 мин, порывы в срок и между сроками (в фигурных скобках) и направление, откуда дует ветер: С - северный, СВ - северо-восточный, В - восточный, ЮВ - юго-восточный, Ю - южный, ЮЗ - юго-западный, З - западный, СЗ - северо-западный.
Видимость - горизонтальная дальность видимости в метрах или километрах. При видимости от 1 до 10 км при отсутствии осадков обычно наблюдается дымка, при ухудшении видимости до 1 км и менее - туман. В сухую погоду видимость может ухудшаться дымом, пылью или мглою.
Явления - указаны атмосферные явления, наблюдавшиеся в срок или в последний час перед сроком; фигурными скобками обозначены явления, наблюдавшиеся между сроками (за 1-3 часа до срока); квадратными скобками обозначены град или гололедные отложения с указанием их диаметра в мм.
Облачность - указаны через наклонную черту общая и нижняя облачность в баллах и высота нижней границы облаков в метрах; квадратными скобками обозначены формы облаков: Ci - перистые, Cs - перисто-слоистые, Cc - перисто-кучевые, Ac - высококучевые, As - высокослоистые, Sc - слоисто-кучевые, Ns - слоисто-дождевые, Cu - кучевые, Cb - кучево-дождевые. Подробнее классификацию облаков см. в Атласе облаков (PDF).
T - Температура воздуха - температура, измеренная на высоте 2 м над землей.
Td - Температура точки росы - температура, при понижении до которой содержащийся в воздухе водяной пар достигнет насыщения.
f - Относительная влажность воздуха - влажноcть воздуха, измеренная на высоте 2 м над землей.
Te - Эффективная температура - температура, которую ощущает одетый по сезону человек в тени. Характеристика душности погоды. При расчете учитывается влияние влажности воздуха и скорости ветра на теплоощущения человека.
Tes - Эффективная температура на солнце - температура, которую ощущает человек, с поправкой на солнечный нагрев. Характеристика знойности погоды. Зависит от высоты солнца над горизонтом, облачности и скорости ветра. Ночью, в пасмурную погоду, а также при ветре 12 м/с и более поправка равна нулю.
P - Атмосферное давление - приведенное к уровню моря атмосферное давление.
Po - Атмосферное давление - измеренное на уровне метеостанции атмосферное давление.
Tmin - Минимальная температура - минимум температуры воздуха на высоте 2 м над землей.
Tmax - Максимальная температура - максимум температуры воздуха на высоте 2 м над землей.
R - Количество осадков - Количество выпавших осадков за период времени, мм. При наведении курсора мыши на число - период времени, за который выпало указанное количество осадков.
R24 - Количество осадков - Количество выпавших осадков за 24 часа, мм.
S - Снежный покров - Высота снежного покрова, см. При наведении курсора мыши на число - состояние снежного покрова и степень покрытия местности в баллах.